QPF
0.01 0.01 0.02 0.03 0.02 0.03 0.02 0.02 0.01 0.01 0.00 0.00 0.00 0.00 0.00 0.00 0.00 0.00 0.00 0.00 0.00 0.00 0.01 0.01 0.01 0.01 0.01 0.01 0.01 0.01 0.01 0.01 0.01 0.01 0.01 0.01 0.01 0.00 0.01 0.01 0.01 0.01 0.01
0.02 0.02 0.03 0.04 0.04 0.04 0.03 0.02 0.02 0.01 0.01 0.01 0.00 0.00 0.00 0.00 0.00 0.00 0.00 0.00 0.00 0.00 0.00 0.01 0.01 0.01 0.01 0.01 0.02 0.02 0.02 0.01 0.02 0.02 0.01 0.01 0.01 0.01 0.01 0.01 0.01 0.01 0.00
0.03 0.04 0.05 0.06 0.06 0.05 0.04 0.02 0.02 0.01 0.02 0.01 0.01 0.00 0.00 0.00 0.00 0.00 0.00 0.00 0.00 0.00 0.00 0.00 0.01 0.01 0.01 0.01 0.02 0.02 0.02 0.02 0.02 0.02 0.02 0.02 0.01 0.01 0.01 0.01 0.01 0.00 0.00
0.05 0.08 0.08 0.09 0.09 0.07 0.06 0.04 0.03 0.03 0.02 0.02 0.01 0.01 0.01 0.01 0.01 0.00 0.00 0.00 0.00 0.00 0.00 0.00 0.00 0.01 0.01 0.01 0.01 0.02 0.02 0.03 0.03 0.02 0.02 0.02 0.02 0.01 0.01 0.01 0.01 0.01 0.01
0.10 0.13 0.15 0.15 0.12 0.11 0.10 0.08 0.06 0.04 0.03 0.03 0.03 0.02 0.02 0.02 0.01 0.01 0.00 0.00 0.00 0.00 0.00 0.01 0.00 0.00 0.00 0.00 0.01 0.01 0.02 0.02 0.02 0.02 0.02 0.02 0.03 0.02 0.02 0.02 0.01 0.01 0.01
0.18 0.20 0.21 0.22 0.21 0.20 0.19 0.16 0.11 0.08 0.06 0.05 0.04 0.04 0.03 0.03 0.03 0.01 0.01 0.01 0.01 0.00 0.00 0.00 0.00 0.00 0.00 0.00 0.00 0.01 0.01 0.02 0.02 0.02 0.02 0.03 0.03 0.02 0.02 0.01 0.01 0.01 0.01
0.28 0.32 0.37 0.36 0.32 0.27 0.24 0.21 0.17 0.14 0.11 0.08 0.07 0.07 0.06 0.05 0.04 0.02 0.02 0.01 0.01 0.01 0.01 0.00 0.00 0.00 0.00 0.00 0.00 0.00 0.01 0.01 0.01 0.02 0.02 0.02 0.02 0.02 0.02 0.02 0.02 0.01 0.01
0.43 0.48 0.49 0.46 0.40 0.32 0.24 0.19 0.17 0.15 0.10 0.07 0.07 0.06 0.06 0.05 0.03 0.02 0.01 0.01 0.00 0.00 0.00 0.00 0.00 0.00 0.00 0.00 0.00 0.00 0.00 0.00 0.01 0.01 0.01 0.02 0.02 0.02 0.02 0.02 0.01 0.01 0.01
0.46 0.45 0.42 0.41 0.37 0.30 0.23 0.19 0.15 0.12 0.10 0.09 0.08 0.09 0.08 0.05 0.02 0.02 0.01 0.01 0.01 0.00 0.00 0.00 0.00 0.00 0.00 0.00 0.00 0.00 0.00 0.00 0.00 0.00 0.00 0.00 0.01 0.01 0.01 0.02 0.01 0.02 0.02
0.35 0.32 0.30 0.28 0.25 0.22 0.20 0.17 0.15 0.13 0.12 0.11 0.10 0.08 0.06 0.04 0.03 0.03 0.02 0.02 0.01 0.01 0.00 0.00 0.00 0.00 0.00 0.00 0.00 0.00 0.00 0.00 0.00 0.00 0.00 0.00 0.00 0.00 0.00 0.01 0.01 0.01 0.02
0.29 0.27 0.23 0.17 0.13 0.11 0.10 0.08 0.08 0.09 0.09 0.07 0.05 0.04 0.03 0.02 0.01 0.01 0.01 0.01 0.00 0.00 0.00 0.00 0.00 0.00 0.00 0.00 0.00 0.00 0.00 0.00 0.00 0.00 0.00 0.00 0.00 0.00 0.00 0.01 0.01 0.01 0.01
0.25 0.19 0.13 0.09 0.07 0.06 0.05 0.05 0.05 0.05 0.04 0.03 0.02 0.02 0.01 0.01 0.01 0.00 0.00 0.00 0.00 0.00 0.00 0.00 0.00 0.00 0.00 0.00 0.00 0.00 0.00 0.00 0.00 0.00 0.00 0.00 0.00 0.00 0.00 0.00 0.01 0.01 0.02
0.13 0.08 0.06 0.05 0.04 0.04 0.04 0.03 0.03 0.03 0.02 0.02 0.01 0.01 0.01 0.01 0.01 0.00 0.00 0.00 0.00 0.00 0.00 0.00 0.00 0.00 0.00 0.00 0.00 0.00 0.00 0.00 0.00 0.00 0.00 0.00 0.00 0.00 0.00 0.00 0.01 0.01 0.01
0.05 0.04 0.03 0.02 0.02 0.02 0.02 0.02 0.02 0.02 0.02 0.02 0.02 0.02 0.01 0.01 0.01 0.01 0.01 0.01 0.00 0.00 0.00 0.00 0.00 0.00 0.00 0.00 0.00 0.00 0.00 0.00 0.00 0.00 0.00 0.00 0.00 0.00 0.01 0.01 0.01 0.01 0.01
0.02 0.01 0.01 0.01 0.01 0.01 0.01 0.01 0.02 0.02 0.02 0.02 0.01 0.01 0.01 0.01 0.01 0.01 0.01 0.00 0.00 0.00 0.00 0.00 0.00 0.00 0.00 0.00 0.00 0.00 0.00 0.00 0.00 0.00 0.00 0.00 0.00 0.00 0.00 0.01 0.01 0.01 0.01
0.01 0.01 0.01 0.01 0.01 0.01 0.01 0.01 0.01 0.01 0.01 0.01 0.01 0.01 0.01 0.00 0.00 0.00 0.00 0.00 0.00 0.00 0.00 0.00 0.00 0.00 0.00 0.00 0.00 0.00 0.00 0.00 0.00 0.00 0.00 0.00 0.00 0.00 0.00 0.01 0.01 0.01 0.01
0.01 0.01 0.01 0.01 0.01 0.01 0.01 0.01 0.01 0.01 0.01 0.01 0.01 0.01 0.01 0.01 0.00 0.00 0.00 0.01 0.01 0.01 0.01 0.00 0.00 0.00 0.00 0.01 0.01 0.01 0.01 0.01 0.00 0.00 0.00 0.00 0.00 0.00 0.01 0.01 0.01 0.01 0.02
0.00 0.00 0.00 0.00 0.01 0.01 0.01 0.01 0.01 0.01 0.01 0.01 0.01 0.01 0.01 0.01 0.01 0.01 0.01 0.01 0.01 0.01 0.01 0.01 0.00 0.00 0.01 0.01 0.01 0.01 0.01 0.00 0.00 0.00 0.00 0.00 0.00 0.00 0.01 0.01 0.01 0.01 0.01
0.01 0.01 0.01 0.02 0.02 0.01 0.01 0.01 0.01 0.01 0.01 0.01 0.01 0.01 0.01 0.01 0.01 0.01 0.01 0.01 0.01 0.01 0.01 0.02 0.01 0.01 0.01 0.01 0.02 0.02 0.01 0.02 0.01 0.00 0.00 0.00 0.00 0.00 0.01 0.01 0.01 0.01 0.00
0.01 0.02 0.02 0.02 0.01 0.01 0.01 0.01 0.01 0.00 0.00 0.00 0.00 0.00 0.00 0.00 0.01 0.01 0.01 0.02 0.02 0.02 0.03 0.03 0.02 0.02 0.02 0.02 0.03 0.03 0.02 0.02 0.02 0.01 0.01 0.01 0.01 0.01 0.00 0.00 0.00 0.00 0.00
0.02 0.02 0.01 0.01 0.01 0.01 0.01 0.00 0.00 0.00 0.00 0.00 0.00 0.00 0.00 0.00 0.01 0.01 0.01 0.02 0.04 0.04 0.04 0.04 0.03 0.02 0.02 0.03 0.03 0.03 0.03 0.02 0.02 0.02 0.03 0.02 0.02 0.02 0.02 0.02 0.01 0.01 0.01
0.01 0.01 0.01 0.00 0.00 0.00 0.00 0.00 0.00 0.00 0.00 0.00 0.00 0.00 0.00 0.00 0.00 0.00 0.00 0.01 0.02 0.04 0.04 0.05 0.04 0.04 0.03 0.04 0.04 0.04 0.04 0.04 0.03 0.02 0.03 0.02 0.02 0.03 0.03 0.03 0.02 0.01 0.01
0.01 0.01 0.01 0.00 0.01 0.00 0.00 0.00 0.00 0.00 0.00 0.01 0.01 0.01 0.01 0.01 0.01 0.02 0.01 0.01 0.01 0.02 0.02 0.04 0.05 0.05 0.05 0.05 0.06 0.05 0.05 0.04 0.03 0.03 0.04 0.03 0.03 0.04 0.03 0.02 0.01 0.00 0.00
0.01 0.00 0.00 0.00 0.01 0.00 0.00 0.00 0.00 0.00 0.01 0.01 0.01 0.01 0.02 0.02 0.02 0.01 0.01 0.02 0.03 0.03 0.03 0.03 0.05 0.05 0.04 0.04 0.05 0.05 0.05 0.03 0.02 0.03 0.05 0.04 0.03 0.03 0.02 0.04 0.02 0.01 0.01
0.01 0.00 0.00 0.01 0.01 0.01 0.00 0.00 0.00 0.00 0.01 0.01 0.01 0.01 0.02 0.02 0.01 0.00 0.01 0.03 0.03 0.04 0.02 0.01 0.01 0.01 0.01 0.02 0.02 0.04 0.04 0.04 0.02 0.03 0.04 0.03 0.02 0.02 0.02 0.04 0.04 0.01 0.01
0.01 0.00 0.00 0.01 0.01 0.01 0.00 0.00 0.00 0.00 0.01 0.01 0.01 0.02 0.02 0.01 0.00 0.00 0.01 0.03 0.04 0.03 0.02 0.02 0.03 0.03 0.03 0.03 0.03 0.04 0.05 0.04 0.04 0.03 0.03 0.02 0.02 0.02 0.02 0.02 0.03 0.03 0.03
MSLP
1016.78 1016.96 1017.09 1017.16 1017.21 1017.26 1017.33 1017.41 1017.51 1017.61 1017.67 1017.69 1017.67 1017.61 1017.56 1017.53 1017.58 1017.73 1017.97 1018.29 1018.66 1019.03 1019.36 1019.63 1019.81 1019.92 1019.98 1020.01 1020.05 1020.13 1020.24 1020.38 1020.53 1020.67 1020.80 1020.88 1020.93 1020.96 1020.98 1021.01 1021.06 1021.14 1021.25
1016.90 1017.10 1017.22 1017.30 1017.35 1017.41 1017.48 1017.57 1017.68 1017.79 1017.88 1017.93 1017.95 1017.94 1017.92 1017.92 1017.97 1018.09 1018.29 1018.55 1018.85 1019.16 1019.43 1019.65 1019.79 1019.87 1019.90 1019.91 1019.94 1019.99 1020.08 1020.20 1020.35 1020.49 1020.62 1020.71 1020.78 1020.82 1020.84 1020.87 1020.91 1020.97 1021.07
1017.20 1017.41 1017.56 1017.66 1017.73 1017.80 1017.88 1017.98 1018.10 1018.22 1018.34 1018.42 1018.47 1018.48 1018.48 1018.48 1018.52 1018.60 1018.74 1018.94 1019.16 1019.39 1019.60 1019.76 1019.85 1019.89 1019.89 1019.87 1019.86 1019.88 1019.95 1020.05 1020.18 1020.32 1020.45 1020.55 1020.62 1020.67 1020.70 1020.72 1020.76 1020.81 1020.89
1017.56 1017.81 1018.00 1018.14 1018.25 1018.34 1018.44 1018.56 1018.68 1018.81 1018.93 1019.03 1019.10 1019.13 1019.13 1019.12 1019.13 1019.17 1019.25 1019.37 1019.52 1019.68 1019.82 1019.91 1019.96 1019.96 1019.92 1019.87 1019.83 1019.82 1019.85 1019.93 1020.04 1020.17 1020.30 1020.41 1020.49 1020.54 1020.57 1020.58 1020.61 1020.65 1020.71
1017.87 1018.17 1018.41 1018.61 1018.77 1018.90 1019.03 1019.15 1019.29 1019.42 1019.55 1019.65 1019.71 1019.74 1019.74 1019.72 1019.70 1019.69 1019.71 1019.76 1019.84 1019.93 1020.01 1020.06 1020.07 1020.04 1019.98 1019.90 1019.84 1019.80 1019.81 1019.87 1019.96 1020.08 1020.21 1020.31 1020.39 1020.44 1020.46 1020.46 1020.46 1020.48 1020.52
1018.05 1018.39 1018.70 1018.96 1019.17 1019.36 1019.52 1019.66 1019.81 1019.94 1020.06 1020.16 1020.22 1020.24 1020.22 1020.17 1020.12 1020.07 1020.04 1020.03 1020.05 1020.09 1020.12 1020.14 1020.13 1020.09 1020.02 1019.94 1019.87 1019.83 1019.83 1019.87 1019.96 1020.07 1020.19 1020.29 1020.36 1020.40 1020.39 1020.37 1020.33 1020.30 1020.30
1018.04 1018.44 1018.81 1019.13 1019.41 1019.64 1019.84 1020.01 1020.17 1020.30 1020.41 1020.50 1020.55 1020.56 1020.52 1020.45 1020.36 1020.27 1020.19 1020.14 1020.12 1020.11 1020.12 1020.12 1020.11 1020.08 1020.02 1019.96 1019.91 1019.88 1019.89 1019.94 1020.02 1020.13 1020.24 1020.33 1020.38 1020.39 1020.35 1020.28 1020.19 1020.11 1020.05
1017.88 1018.33 1018.75 1019.14 1019.48 1019.77 1020.01 1020.20 1020.37 1020.51 1020.61 1020.69 1020.72 1020.71 1020.66 1020.56 1020.44 1020.31 1020.19 1020.09 1020.03 1019.99 1019.98 1019.99 1019.99 1019.98 1019.97 1019.95 1019.93 1019.94 1019.97 1020.03 1020.12 1020.22 1020.32 1020.39 1020.42 1020.39 1020.31 1020.18 1020.03 1019.88 1019.76
1017.65 1018.14 1018.61 1019.06 1019.46 1019.79 1020.07 1020.29 1020.47 1020.61 1020.71 1020.78 1020.79 1020.76 1020.68 1020.55 1020.40 1020.22 1020.06 1019.92 1019.82 1019.76 1019.73 1019.74 1019.77 1019.80 1019.83 1019.86 1019.90 1019.94 1020.01 1020.09 1020.19 1020.29 1020.37 1020.42 1020.42 1020.35 1020.22 1020.05 1019.83 1019.61 1019.42
1017.47 1017.99 1018.51 1019.00 1019.44 1019.82 1020.13 1020.37 1020.56 1020.70 1020.79 1020.84 1020.84 1020.78 1020.67 1020.51 1020.31 1020.09 1019.88 1019.69 1019.54 1019.45 1019.41 1019.42 1019.46 1019.53 1019.60 1019.68 1019.76 1019.85 1019.94 1020.05 1020.15 1020.24 1020.31 1020.34 1020.31 1020.21 1020.05 1019.83 1019.56 1019.29 1019.03
1017.46 1018.00 1018.55 1019.07 1019.54 1019.94 1020.26 1020.52 1020.70 1020.83 1020.91 1020.94 1020.92 1020.84 1020.69 1020.49 1020.25 1019.98 1019.71 1019.46 1019.27 1019.13 1019.06 1019.05 1019.10 1019.18 1019.28 1019.39 1019.51 1019.62 1019.73 1019.84 1019.94 1020.03 1020.08 1020.09 1020.04 1019.92 1019.74 1019.49 1019.21 1018.91 1018.61
1017.67 1018.23 1018.79 1019.33 1019.81 1020.21 1020.53 1020.77 1020.94 1021.05 1021.10 1021.11 1021.06 1020.94 1020.77 1020.53 1020.25 1019.93 1019.60 1019.29 1019.04 1018.85 1018.73 1018.69 1018.71 1018.79 1018.89 1019.01 1019.14 1019.25 1019.36 1019.46 1019.54 1019.61 1019.64 1019.63 1019.57 1019.45 1019.27 1019.04 1018.76 1018.46 1018.16
1018.12 1018.69 1019.25 1019.78 1020.24 1020.61 1020.90 1021.11 1021.25 1021.32 1021.35 1021.32 1021.24 1021.10 1020.90 1020.63 1020.31 1019.95 1019.57 1019.21 1018.89 1018.64 1018.46 1018.37 1018.35 1018.39 1018.47 1018.57 1018.67 1018.76 1018.84 1018.91 1018.96 1018.99 1018.99 1018.96 1018.90 1018.79 1018.64 1018.44 1018.21 1017.95 1017.67
1018.77 1019.32 1019.86 1020.36 1020.78 1021.11 1021.35 1021.51 1021.59 1021.62 1021.60 1021.54 1021.44 1021.28 1021.06 1020.77 1020.43 1020.04 1019.62 1019.22 1018.84 1018.53 1018.29 1018.14 1018.06 1018.04 1018.06 1018.11 1018.16 1018.20 1018.23 1018.24 1018.23 1018.21 1018.18 1018.13 1018.06 1017.98 1017.86 1017.72 1017.55 1017.35 1017.13
1019.53 1020.06 1020.56 1021.00 1021.36 1021.62 1021.79 1021.88 1021.90 1021.87 1021.81 1021.72 1021.59 1021.42 1021.20 1020.91 1020.57 1020.17 1019.74 1019.31 1018.90 1018.54 1018.24 1018.01 1017.86 1017.77 1017.71 1017.68 1017.66 1017.63 1017.58 1017.51 1017.44 1017.36 1017.27 1017.19 1017.11 1017.04 1016.96 1016.87 1016.77 1016.64 1016.50
1020.32 1020.80 1021.23 1021.61 1021.89 1022.08 1022.17 1022.18 1022.13 1022.05 1021.94 1021.82 1021.67 1021.50 1021.29 1021.03 1020.71 1020.34 1019.92 1019.48 1019.05 1018.65 1018.30 1018.01 1017.78 1017.60 1017.46 1017.34 1017.23 1017.10 1016.97 1016.81 1016.65 1016.49 1016.34 1016.21 1016.10 1016.02 1015.96 1015.91 1015.87 1015.81 1015.74
1021.04 1021.46 1021.82 1022.12 1022.32 1022.42 1022.44 1022.38 1022.27 1022.13 1021.98 1021.83 1021.68 1021.53 1021.34 1021.12 1020.84 1020.50 1020.12 1019.70 1019.26 1018.84 1018.45 1018.10 1017.79 1017.53 1017.30 1017.09 1016.88 1016.67 1016.43 1016.19 1015.93 1015.69 1015.45 1015.25 1015.09 1014.97 1014.90 1014.86 1014.85 1014.84 1014.83
1021.65 1021.99 1022.29 1022.51 1022.64 1022.67 1022.62 1022.49 1022.33 1022.14 1021.96 1021.79 1021.64 1021.50 1021.35 1021.16 1020.93 1020.65 1020.30 1019.91 1019.49 1019.06 1018.63 1018.23 1017.86 1017.53 1017.22 1016.92 1016.62 1016.32 1015.99 1015.66 1015.31 1014.97 1014.65 1014.36 1014.12 1013.93 1013.81 1013.75 1013.73 1013.74 1013.77
1022.14 1022.41 1022.63 1022.79 1022.86 1022.84 1022.74 1022.57 1022.36 1022.13 1021.92 1021.74 1021.59 1021.45 1021.32 1021.17 1020.99 1020.75 1020.45 1020.09 1019.68 1019.24 1018.79 1018.35 1017.93 1017.52 1017.14 1016.77 1016.40 1016.02 1015.63 1015.21 1014.79 1014.36 1013.94 1013.56 1013.22 1012.95 1012.75 1012.62 1012.56 1012.56 1012.59
1022.50 1022.71 1022.88 1023.00 1023.03 1022.98 1022.85 1022.65 1022.41 1022.16 1021.92 1021.71 1021.54 1021.40 1021.28 1021.15 1020.99 1020.78 1020.51 1020.17 1019.77 1019.33 1018.86 1018.38 1017.91 1017.45 1017.01 1016.59 1016.17 1015.74 1015.29 1014.83 1014.34 1013.84 1013.35 1012.87 1012.43 1012.05 1011.76 1011.54 1011.41 1011.36 1011.37
1022.78 1022.94 1023.09 1023.18 1023.20 1023.14 1022.99 1022.78 1022.51 1022.24 1021.97 1021.73 1021.53 1021.37 1021.23 1021.09 1020.93 1020.73 1020.46 1020.13 1019.73 1019.27 1018.78 1018.27 1017.76 1017.27 1016.79 1016.34 1015.89 1015.44 1014.97 1014.48 1013.96 1013.42 1012.86 1012.30 1011.78 1011.30 1010.89 1010.58 1010.36 1010.24 1010.21
1023.00 1023.14 1023.27 1023.37 1023.39 1023.33 1023.19 1022.96 1022.68 1022.38 1022.07 1021.79 1021.54 1021.34 1021.16 1020.99 1020.81 1020.58 1020.30 1019.95 1019.53 1019.06 1018.54 1018.01 1017.47 1016.96 1016.47 1016.00 1015.55 1015.10 1014.65 1014.16 1013.64 1013.08 1012.49 1011.88 1011.28 1010.71 1010.21 1009.79 1009.48 1009.27 1009.17
1023.18 1023.33 1023.47 1023.57 1023.61 1023.56 1023.42 1023.19 1022.90 1022.56 1022.21 1021.88 1021.57 1021.30 1021.07 1020.84 1020.61 1020.35 1020.03 1019.65 1019.21 1018.71 1018.17 1017.62 1017.07 1016.54 1016.05 1015.60 1015.17 1014.75 1014.33 1013.87 1013.38 1012.83 1012.23 1011.60 1010.96 1010.32 1009.73 1009.22 1008.82 1008.52 1008.35
1023.36 1023.51 1023.67 1023.79 1023.84 1023.81 1023.67 1023.43 1023.11 1022.74 1022.35 1021.96 1021.60 1021.26 1020.96 1020.67 1020.37 1020.05 1019.69 1019.28 1018.80 1018.28 1017.73 1017.16 1016.61 1016.09 1015.61 1015.18 1014.79 1014.42 1014.05 1013.65 1013.20 1012.69 1012.11 1011.48 1010.81 1010.13 1009.48 1008.89 1008.40 1008.01 1007.76
1023.54 1023.71 1023.88 1024.01 1024.07 1024.03 1023.89 1023.64 1023.30 1022.90 1022.47 1022.03 1021.60 1021.21 1020.83 1020.48 1020.13 1019.75 1019.34 1018.89 1018.38 1017.84 1017.28 1016.71 1016.17 1015.66 1015.22 1014.82 1014.48 1014.16 1013.85 1013.51 1013.12 1012.65 1012.11 1011.50 1010.83 1010.13 1009.43 1008.77 1008.20 1007.73 1007.38
1023.73 1023.90 1024.07 1024.20 1024.25 1024.21 1024.05 1023.79 1023.43 1023.01 1022.54 1022.06 1021.60 1021.15 1020.72 1020.31 1019.91 1019.49 1019.03 1018.55 1018.02 1017.46 1016.89 1016.33 1015.80 1015.33 1014.91 1014.56 1014.26 1014.00 1013.74 1013.46 1013.13 1012.71 1012.22 1011.63 1010.96 1010.25 1009.52 1008.82 1008.17 1007.62 1007.18
Thickness
5728 5725 5722 5718 5718 5716 5713 5711 5712 5709 5709 5708 5707 5706 5706 5704 5703 5702 5698 5692 5690 5688 5687 5686 5685 5683 5682 5680 5679 5678 5676 5675 5674 5672 5671 5670 5669 5669 5669 5668 5668 5667 5667
5725 5721 5717 5713 5712 5710 5709 5707 5706 5704 5703 5702 5700 5698 5697 5697 5694 5692 5693 5687 5683 5682 5681 5680 5678 5678 5676 5675 5673 5672 5670 5669 5667 5666 5664 5663 5662 5661 5661 5661 5660 5660 5660
5718 5714 5712 5708 5705 5702 5699 5698 5697 5697 5695 5693 5691 5689 5689 5687 5686 5684 5684 5683 5680 5675 5673 5672 5671 5670 5669 5668 5666 5665 5663 5661 5660 5658 5657 5655 5654 5652 5652 5652 5651 5651 5651
5711 5707 5705 5701 5697 5694 5692 5690 5690 5690 5688 5687 5685 5682 5680 5677 5676 5675 5675 5674 5673 5671 5666 5663 5661 5660 5659 5658 5656 5655 5654 5653 5651 5649 5647 5646 5644 5643 5642 5642 5642 5642 5642
5702 5698 5696 5692 5688 5686 5684 5682 5681 5680 5678 5676 5674 5670 5670 5669 5666 5665 5663 5663 5661 5659 5658 5652 5650 5649 5648 5646 5645 5644 5643 5641 5640 5638 5636 5635 5634 5633 5632 5631 5631 5631 5631
5694 5690 5687 5682 5680 5677 5674 5671 5668 5666 5666 5664 5664 5661 5659 5658 5657 5655 5653 5651 5649 5648 5646 5643 5642 5639 5636 5634 5633 5631 5630 5628 5627 5626 5624 5623 5621 5620 5620 5619 5619 5619 5619
5686 5682 5678 5674 5671 5669 5666 5663 5660 5657 5655 5654 5654 5653 5650 5648 5646 5644 5643 5642 5640 5637 5635 5632 5631 5629 5627 5622 5620 5618 5615 5614 5613 5612 5610 5609 5608 5607 5607 5606 5606 5606 5606
5680 5677 5671 5668 5665 5661 5658 5655 5652 5650 5648 5646 5646 5644 5642 5641 5636 5636 5633 5631 5629 5628 5625 5622 5618 5615 5614 5612 5609 5605 5601 5599 5597 5596 5595 5594 5593 5592 5591 5591 5592 5592 5593
5676 5670 5665 5662 5658 5655 5652 5648 5645 5642 5641 5638 5637 5637 5635 5636 5635 5630 5624 5621 5618 5616 5614 5611 5608 5604 5601 5598 5596 5593 5588 5584 5582 5581 5580 5579 5577 5576 5576 5576 5577 5578 5579
5669 5664 5661 5656 5653 5650 5645 5642 5639 5637 5634 5632 5628 5625 5623 5622 5618 5619 5616 5613 5608 5604 5601 5599 5596 5593 5588 5585 5582 5576 5573 5569 5566 5564 5563 5562 5561 5560 5560 5561 5561 5562 5563
5663 5658 5654 5649 5645 5642 5637 5633 5630 5627 5625 5622 5619 5614 5610 5606 5604 5603 5604 5602 5599 5596 5592 5587 5582 5578 5575 5571 5568 5565 5560 5554 5550 5548 5547 5546 5545 5544 5544 5545 5546 5547 5548
5655 5650 5645 5639 5635 5632 5627 5623 5619 5615 5612 5607 5604 5602 5598 5596 5594 5592 5590 5588 5586 5583 5578 5572 5567 5564 5561 5557 5554 5549 5544 5538 5535 5532 5531 5530 5529 5528 5528 5528 5529 5530 5532
5644 5638 5633 5628 5624 5619 5615 5611 5606 5602 5598 5593 5589 5587 5584 5582 5579 5576 5573 5573 5570 5569 5564 5560 5555 5551 5546 5542 5538 5534 5528 5524 5520 5517 5515 5514 5513 5512 5511 5511 5512 5513 5514
5633 5626 5621 5616 5611 5606 5601 5596 5592 5587 5582 5578 5575 5570 5568 5568 5564 5560 5557 5554 5554 5555 5553 5548 5543 5536 5531 5526 5521 5516 5513 5511 5507 5503 5501 5498 5497 5496 5495 5495 5495 5496 5497
5620 5613 5607 5602 5596 5591 5586 5581 5576 5571 5567 5564 5561 5556 5553 5552 5547 5544 5540 5537 5536 5538 5538 5533 5527 5522 5515 5510 5506 5502 5499 5497 5493 5490 5487 5484 5482 5480 5480 5480 5480 5480 5481
5604 5598 5591 5586 5580 5575 5570 5565 5560 5555 5551 5547 5543 5539 5535 5535 5532 5528 5525 5522 5519 5518 5519 5516 5510 5506 5500 5494 5491 5487 5486 5483 5480 5477 5474 5471 5469 5467 5466 5465 5465 5466 5467
5587 5581 5575 5569 5563 5557 5552 5548 5544 5539 5535 5532 5528 5525 5521 5516 5515 5512 5511 5508 5505 5502 5502 5501 5495 5490 5484 5480 5477 5475 5472 5471 5471 5468 5464 5461 5458 5456 5455 5454 5454 5455 5455
5570 5563 5557 5551 5545 5540 5534 5530 5526 5522 5519 5516 5512 5509 5506 5504 5500 5498 5496 5493 5490 5486 5484 5483 5480 5475 5471 5468 5466 5463 5462 5461 5460 5459 5456 5453 5451 5450 5449 5448 5447 5447 5447
5551 5545 5539 5533 5527 5522 5517 5513 5509 5506 5503 5500 5497 5494 5492 5489 5487 5485 5480 5478 5477 5474 5470 5468 5467 5463 5461 5459 5456 5454 5453 5451 5451 5452 5451 5450 5449 5447 5446 5445 5444 5443 5442
5533 5527 5521 5515 5510 5505 5501 5497 5494 5491 5488 5486 5483 5480 5479 5476 5473 5470 5468 5465 5463 5461 5458 5456 5455 5454 5452 5451 5448 5447 5446 5445 5445 5446 5447 5446 5445 5444 5443 5443 5441 5440 5439
5515 5509 5503 5499 5494 5490 5484 5479 5478 5478 5475 5473 5471 5469 5467 5463 5457 5454 5454 5453 5451 5450 5448 5447 5446 5445 5445 5443 5441 5439 5438 5439 5440 5441 5442 5441 5442 5443 5442 5441 5440 5438 5436
5497 5493 5488 5484 5480 5475 5464 5460 5458 5463 5463 5461 5460 5457 5455 5453 5450 5445 5442 5440 5438 5438 5439 5438 5439 5438 5438 5437 5436 5434 5433 5433 5435 5436 5434 5436 5437 5438 5438 5438 5437 5434 5432
5482 5478 5474 5469 5465 5457 5449 5446 5445 5446 5450 5449 5447 5445 5444 5444 5439 5438 5437 5435 5434 5433 5431 5431 5433 5433 5434 5434 5432 5431 5429 5428 5429 5430 5429 5431 5433 5433 5434 5435 5432 5430 5428
5469 5464 5459 5454 5450 5444 5436 5433 5432 5436 5439 5437 5435 5433 5432 5431 5430 5425 5426 5429 5432 5433 5431 5431 5431 5432 5432 5430 5428 5427 5425 5424 5426 5428 5426 5426 5429 5429 5431 5431 5428 5425 5424
5455 5450 5445 5440 5436 5431 5423 5420 5418 5425 5427 5426 5425 5424 5422 5421 5417 5415 5418 5424 5428 5431 5431 5430 5430 5429 5428 5426 5424 5423 5424 5422 5423 5425 5422 5419 5421 5422 5425 5427 5425 5422 5420
5441 5437 5431 5426 5422 5419 5411 5407 5404 5413 5414 5415 5416 5416 5414 5412 5410 5410 5415 5421 5425 5429 5430 5433 5433 5432 5431 5429 5425 5422 5421 5420 5419 5419 5416 5411 5413 5413 5417 5421 5420 5419 5418